Home > Weather > Kortrijk > Past weeks

Flag for Belgium Weather for the Past 2 Weeks in Kortrijk, Belgium

Now
41 °F

Passing clouds.


Feels Like: 37 °F
Forecast: 34 / 43 °F
Wind: 6 mph from West

Location: Lille Airport

Current Time: Feb 11, 2016 at 6:27:22 PM

Latest Report: Feb 11, 2016 at 6:00 PM


Visibility: N/A

Pressure: 29.65 "Hg

Humidity: 87%

Dew point: 37 °F

Location of KortrijkLocation

Historic Weather in Kortrijk — Graph

°F

Kortrijk Temperature Yesterday

Maximum temperature yesterday: 46 °F (at 2:00 PM)
Minimum temperature yesterday: 37 °F (at 3:30 AM)
Average temperature yesterday: 42 °F

High & Low Weather Summary for the Past Weeks

 TemperatureHumidityPressure
High54 °F (Jan 31, 5:00 PM)100% (Feb 2, 5:30 AM)30.36 "Hg (Feb 2, 5:30 AM)
Low34 °F (Feb 11, 6:30 AM)46% (Jan 28, 3:00 PM)28.94 "Hg (Feb 9, 12:30 PM)
Average46 °F84%29.85 "Hg
* Reported Jan 27 5:00 PM — Feb 11 5:00 PM, Kortrijk, Weather by CustomWeather, © 2016

Note: Actual official high and low records may vary slightly from our data, if they occured in-between our weather recording intervals... More about our weather records

Advertising

Kortrijk Weather History for the Previous 24 Hours

 ConditionsComfort  
Time TempWeatherWind HumidityBarometerVisibility
5:00 PM
Thu, Feb 11
41 °FOvercast.5 mph93%29.65 "HgN/A
4:30 PM41 °FMostly cloudy.6 mph93%29.65 "HgN/A
4:00 PM41 °FOvercast.3 mph93%29.65 "HgN/A
3:30 PM41 °FLight rain. Mostly cloudy.2 mph93%29.65 "HgN/A
3:00 PM41 °FMostly cloudy.5 mph93%29.65 "HgN/A
2:30 PM41 °FLight rain. Mostly cloudy.7 mph93%29.65 "HgN/A
2:00 PM41 °FMostly cloudy.10 mph87%29.68 "HgN/A
1:30 PM43 °FMostly cloudy.12 mph81%29.68 "HgN/A
1:00 PM43 °FCloudy.9 mph81%29.68 "HgN/A
12:30 PM43 °FMore clouds than sun.8 mph87%29.68 "HgN/A
12:00 PM43 °FMostly cloudy.13 mph87%29.68 "HgN/A
11:30 AM41 °FPartly sunny.9 mph93%29.68 "HgN/A
11:00 AM39 °FLow clouds.9 mph100%29.68 "Hg5 mi
10:30 AM39 °FMostly cloudy.8 mph93%29.68 "HgN/A
10:00 AM37 °FMostly cloudy.6 mph93%29.68 "HgN/A
9:30 AM36 °FMore clouds than sun.3 mph100%29.68 "HgN/A
9:00 AM36 °FSunny.3 mph93%29.68 "Hg10 mi
8:30 AM34 °FSunny.2 mph93%29.68 "Hg10 mi
8:00 AM36 °FClear.5 mph93%29.68 "Hg10 mi
7:30 AM36 °FClear.6 mph93%29.68 "Hg10 mi
7:00 AM37 °FClear.6 mph93%29.68 "Hg6 mi
6:30 AM34 °FClear.5 mph93%29.68 "Hg5 mi
6:00 AM36 °FClear.2 mph93%29.68 "Hg4 mi
5:30 AM36 °FClear.1 mph93%29.68 "Hg4 mi
5:00 AM36 °FClear.No wind93%29.65 "Hg6 mi
4:30 AM37 °FClear.3 mph93%29.65 "Hg10 mi
4:00 AM37 °FClear.5 mph93%29.65 "Hg10 mi
3:00 AM39 °FClear.7 mph93%29.65 "Hg10 mi
2:30 AM39 °FClear.5 mph87%29.65 "Hg10 mi
2:00 AM41 °FClear.6 mph87%29.65 "Hg10 mi
1:30 AM41 °FClear.7 mph87%29.65 "Hg10 mi
1:00 AM41 °FClear.7 mph93%29.62 "Hg10 mi
12:30 AM41 °FMostly cloudy.8 mph87%29.62 "HgN/A
12:00 AM41 °FMostly cloudy.7 mph87%29.62 "HgN/A
11:30 PM
Wed, Feb 10
41 °FPartly cloudy.6 mph87%29.62 "HgN/A
10:30 PM41 °FOvercast.6 mph87%29.59 "HgN/A
10:00 PM41 °FPassing clouds.6 mph87%29.59 "HgN/A
9:30 PM41 °FPassing clouds.8 mph87%29.59 "HgN/A
9:00 PM43 °FOvercast.9 mph87%29.56 "HgN/A
8:30 PM43 °FOvercast.6 mph87%29.56 "HgN/A
8:00 PM43 °FMostly cloudy.6 mph81%29.56 "HgN/A
7:30 PM43 °FMostly cloudy.7 mph81%29.56 "HgN/A
7:00 PM43 °FMostly cloudy.9 mph87%29.53 "HgN/A
6:30 PM43 °FOvercast.8 mph87%29.53 "HgN/A
6:00 PM43 °FMostly cloudy.12 mph81%29.50 "HgN/A
Weather by CustomWeather, © 2016

See weather overviewHow to use our weather pages